Time,TemperatureF,DewpointF,PressureIn,WindDirection,WindDirectionDegrees,WindSpeedMPH,WindSpeedGustMPH,Humidity,HourlyPrecipIn,Conditions,Clouds,dailyrainin,SoftwareType,DateUTC
2013-10-31 00:05:00,63.0,59.0,29.60,SSE,162,0.0,4.0,88,0.01,,,0.01,weatherlink.com 1.10,2013-10-31 06:05:00,
2013-10-31 00:20:00,62.7,60.0,29.62,South,174,1.0,6.0,90,0.00,,,0.01,weatherlink.com 1.10,2013-10-31 06:20:00,
2013-10-31 00:35:00,62.6,60.0,29.60,SSE,154,1.0,7.0,90,0.00,,,0.01,weatherlink.com 1.10,2013-10-31 06:35:00,
2013-10-31 00:50:00,62.5,59.0,29.60,SSE,158,4.0,6.0,89,0.00,,,0.01,weatherlink.com 1.10,2013-10-31 06:50:00,
2013-10-31 01:05:00,62.5,60.0,29.59,SSE,164,3.0,7.0,90,0.00,,,0.00,weatherlink.com 1.10,2013-10-31 07:05:00,
2013-10-31 01:20:00,62.7,60.0,29.60,South,179,4.0,8.0,89,0.00,,,0.00,weatherlink.com 1.10,2013-10-31 07:20:00,
2013-10-31 01:35:00,63.0,59.0,29.61,SW,219,9.0,13.0,88,0.00,,,0.00,weatherlink.com 1.10,2013-10-31 07:35:00,
2013-10-31 01:50:00,63.8,59.0,29.61,SW,222,5.0,17.0,85,0.00,,,0.00,weatherlink.com 1.10,2013-10-31 07:50:00,
2013-10-31 02:05:00,63.7,59.0,29.61,SW,229,10.0,13.0,85,0.00,,,0.00,weatherlink.com 1.10,2013-10-31 08:05:00,
2013-10-31 02:20:00,63.4,59.0,29.61,WSW,241,10.0,12.0,86,0.00,,,0.00,weatherlink.com 1.10,2013-10-31 08:20:00,
2013-10-31 02:35:00,63.7,59.0,29.61,WSW,240,6.0,17.0,84,0.00,,,0.00,weatherlink.com 1.10,2013-10-31 08:35:00,
2013-10-31 02:50:00,64.2,57.0,29.61,WSW,237,5.0,16.0,78,0.00,,,0.00,weatherlink.com 1.10,2013-10-31 08:50:00,
2013-10-31 03:05:00,64.0,57.0,29.61,WSW,252,8.0,12.0,79,0.00,,,0.00,weatherlink.com 1.10,2013-10-31 09:05:00,
2013-10-31 03:20:00,63.8,56.0,29.61,WSW,239,5.0,11.0,77,0.00,,,0.00,weatherlink.com 1.10,2013-10-31 09:20:00,
2013-10-31 03:35:00,64.2,49.0,29.61,West,276,10.0,15.0,59,0.00,,,0.00,weatherlink.com 1.10,2013-10-31 09:35:00,
2013-10-31 03:50:00,63.3,46.0,29.62,West,270,4.0,14.0,53,0.00,,,0.00,weatherlink.com 1.10,2013-10-31 09:50:00,
2013-10-31 04:05:00,61.7,46.0,29.62,West,266,5.0,7.0,56,0.00,,,0.00,weatherlink.com 1.10,2013-10-31 10:05:00,
2013-10-31 04:20:00,60.7,44.0,29.62,WSW,254,0.0,8.0,55,0.00,,,0.00,weatherlink.com 1.10,2013-10-31 10:20:00,
2013-10-31 04:35:00,59.2,45.0,29.63,WSW,251,4.0,6.0,60,0.00,,,0.00,weatherlink.com 1.10,2013-10-31 10:35:00,
2013-10-31 04:50:00,58.5,44.0,29.63,WSW,241,4.0,10.0,60,0.00,,,0.00,weatherlink.com 1.10,2013-10-31 10:50:00,
2013-10-31 05:05:00,58.6,41.0,29.64,WSW,247,2.0,18.0,53,0.00,,,0.00,weatherlink.com 1.10,2013-10-31 11:05:00,
2013-10-31 05:20:00,57.8,40.0,29.65,West,259,16.0,19.0,52,0.00,,,0.00,weatherlink.com 1.10,2013-10-31 11:20:00,
2013-10-31 05:36:00,56.4,40.0,29.66,WSW,258,8.0,14.0,54,0.00,,,0.00,weatherlink.com 1.10,2013-10-31 11:36:00,
2013-10-31 05:51:00,56.1,39.0,29.67,WSW,256,10.0,11.0,53,0.00,,,0.00,weatherlink.com 1.10,2013-10-31 11:51:00,
2013-10-31 06:06:00,56.1,38.0,29.67,WSW,249,7.0,15.0,52,0.00,,,0.00,weatherlink.com 1.10,2013-10-31 12:06:00,
2013-10-31 06:21:00,54.9,39.0,29.66,SW,231,7.0,12.0,56,0.00,,,0.00,weatherlink.com 1.10,2013-10-31 12:21:00,
2013-10-31 06:36:00,54.0,39.0,29.67,WSW,247,0.0,12.0,57,0.00,,,0.00,weatherlink.com 1.10,2013-10-31 12:36:00,
2013-10-31 06:52:00,54.2,39.0,29.68,West,262,6.0,15.0,56,0.00,,,0.00,weatherlink.com 1.10,2013-10-31 12:52:00,
2013-10-31 07:21:00,53.5,39.0,29.69,WSW,256,5.0,13.0,58,0.00,,,0.00,weatherlink.com 1.10,2013-10-31 13:21:00,
2013-10-31 07:36:00,54.8,40.0,29.70,West,270,12.0,25.0,58,0.01,,,0.01,weatherlink.com 1.10,2013-10-31 13:36:00,
2013-10-31 07:51:00,55.0,42.0,29.70,WNW,299,13.0,28.0,61,0.01,,,0.01,weatherlink.com 1.10,2013-10-31 13:51:00,
2013-10-31 08:06:00,54.5,42.0,29.72,WNW,302,14.0,29.0,63,0.01,,,0.01,weatherlink.com 1.10,2013-10-31 14:06:00,
2013-10-31 08:21:00,54.3,43.0,29.74,NW,306,12.0,29.0,65,0.01,,,0.01,weatherlink.com 1.10,2013-10-31 14:21:00,
2013-10-31 08:36:00,54.6,43.0,29.75,NW,310,14.0,30.0,66,0.00,,,0.01,weatherlink.com 1.10,2013-10-31 14:36:00,
2013-10-31 08:51:00,54.9,44.0,29.77,NW,317,17.0,30.0,66,0.00,,,0.01,weatherlink.com 1.10,2013-10-31 14:51:00,
2013-10-31 09:06:00,55.6,44.0,29.77,NW,323,21.0,29.0,66,0.00,,,0.01,weatherlink.com 1.10,2013-10-31 15:06:00,
2013-10-31 09:21:00,56.5,44.0,29.78,WNW,299,13.0,31.0,63,0.00,,,0.01,weatherlink.com 1.10,2013-10-31 15:21:00,
2013-10-31 09:36:00,57.1,44.0,29.80,NW,320,16.0,31.0,61,0.00,,,0.01,weatherlink.com 1.10,2013-10-31 15:36:00,
2013-10-31 09:51:00,57.8,44.0,29.81,WNW,298,15.0,29.0,60,0.00,,,0.01,weatherlink.com 1.10,2013-10-31 15:51:00,
2013-10-31 10:06:00,58.4,44.0,29.81,NW,316,12.0,32.0,59,0.00,,,0.01,weatherlink.com 1.10,2013-10-31 16:06:00,
2013-10-31 10:21:00,59.4,44.0,29.82,NW,318,10.0,23.0,57,0.00,,,0.01,weatherlink.com 1.10,2013-10-31 16:21:00,
2013-10-31 10:36:00,60.2,44.0,29.83,NW,316,14.0,21.0,55,0.00,,,0.01,weatherlink.com 1.10,2013-10-31 16:36:00,
2013-10-31 10:51:00,61.1,44.0,29.84,NNW,332,14.0,21.0,53,0.00,,,0.01,weatherlink.com 1.10,2013-10-31 16:51:00,
2013-10-31 11:06:00,62.1,44.0,29.83,NNW,337,16.0,28.0,51,0.00,,,0.01,weatherlink.com 1.10,2013-10-31 17:06:00,
2013-10-31 11:21:00,62.6,43.0,29.83,NW,316,7.0,21.0,49,0.00,,,0.01,weatherlink.com 1.10,2013-10-31 17:21:00,
2013-10-31 11:36:00,63.5,43.0,29.83,NNW,334,8.0,17.0,47,0.00,,,0.01,weatherlink.com 1.10,2013-10-31 17:36:00,
2013-10-31 11:52:00,63.9,43.0,29.82,NW,324,15.0,24.0,46,0.00,,,0.01,weatherlink.com 1.10,2013-10-31 17:52:00,
2013-10-31 12:06:00,64.8,43.0,29.82,NNW,338,15.0,22.0,45,0.00,,,0.01,weatherlink.com 1.10,2013-10-31 18:06:00,
2013-10-31 12:22:00,65.6,44.0,29.81,WNW,299,14.0,20.0,45,0.00,,,0.01,weatherlink.com 1.10,2013-10-31 18:22:00,
2013-10-31 12:37:00,65.7,42.0,29.81,NNW,347,11.0,21.0,42,0.00,,,0.01,weatherlink.com 1.10,2013-10-31 18:37:00,
2013-10-31 12:52:00,66.2,43.0,29.80,NW,321,3.0,16.0,43,0.00,,,0.01,weatherlink.com 1.10,2013-10-31 18:52:00,
2013-10-31 13:07:00,66.7,42.0,29.79,NNW,338,2.0,15.0,40,0.00,,,0.01,weatherlink.com 1.10,2013-10-31 19:07:00,
2013-10-31 13:22:00,67.0,40.0,29.78,NW,322,1.0,22.0,38,0.00,,,0.01,weatherlink.com 1.10,2013-10-31 19:22:00,
2013-10-31 13:37:00,67.5,41.0,29.78,WNW,302,7.0,16.0,38,0.00,,,0.01,weatherlink.com 1.10,2013-10-31 19:37:00,
2013-10-31 13:52:00,68.2,39.0,29.77,NNW,328,2.0,14.0,35,0.00,,,0.01,weatherlink.com 1.10,2013-10-31 19:52:00,
2013-10-31 14:07:00,68.7,39.0,29.77,NNW,347,9.0,14.0,34,0.00,,,0.01,weatherlink.com 1.10,2013-10-31 20:07:00,
2013-10-31 14:22:00,69.0,39.0,29.77,WNW,299,9.0,13.0,34,0.00,,,0.01,weatherlink.com 1.10,2013-10-31 20:22:00,
2013-10-31 14:37:00,68.9,39.0,29.77,WNW,298,8.0,15.0,33,0.00,,,0.01,weatherlink.com 1.10,2013-10-31 20:37:00,
2013-10-31 14:52:00,69.1,39.0,29.77,WNW,285,7.0,13.0,33,0.00,,,0.01,weatherlink.com 1.10,2013-10-31 20:52:00,
2013-10-31 15:07:00,69.1,39.0,29.77,WNW,295,10.0,16.0,33,0.00,,,0.01,weatherlink.com 1.10,2013-10-31 21:07:00,
2013-10-31 15:22:00,69.6,38.0,29.77,West,276,9.0,13.0,32,0.00,,,0.01,weatherlink.com 1.10,2013-10-31 21:22:00,
2013-10-31 15:37:00,69.6,39.0,29.77,NW,322,7.0,13.0,33,0.00,,,0.01,weatherlink.com 1.10,2013-10-31 21:37:00,
2013-10-31 15:52:00,69.3,40.0,29.77,West,272,0.0,12.0,34,0.00,,,0.01,weatherlink.com 1.10,2013-10-31 21:52:00,
2013-10-31 16:07:00,69.4,38.0,29.76,WNW,302,7.0,11.0,32,0.00,,,0.01,weatherlink.com 1.10,2013-10-31 22:07:00,
2013-10-31 16:22:00,69.3,39.0,29.76,NW,306,1.0,11.0,33,0.00,,,0.01,weatherlink.com 1.10,2013-10-31 22:22:00,
2013-10-31 16:37:00,69.2,39.0,29.76,WNW,299,0.0,4.0,33,0.00,,,0.01,weatherlink.com 1.10,2013-10-31 22:37:00,
2013-10-31 16:52:00,69.3,39.0,29.77,WNW,299,1.0,1.0,33,0.00,,,0.01,weatherlink.com 1.10,2013-10-31 22:52:00,
2013-10-31 17:07:00,68.9,39.0,29.76,WNW,303,0.0,4.0,33,0.00,,,0.01,weatherlink.com 1.10,2013-10-31 23:07:00,
2013-10-31 17:22:00,68.8,39.0,29.77,WNW,303,0.0,0.0,34,0.00,,,0.01,weatherlink.com 1.10,2013-10-31 23:22:00,
2013-10-31 17:37:00,68.6,40.0,29.77,WNW,302,0.0,0.0,36,0.00,,,0.01,weatherlink.com 1.10,2013-10-31 23:37:00,
2013-10-31 17:52:00,66.8,42.0,29.77,WNW,302,0.0,0.0,40,0.00,,,0.01,weatherlink.com 1.10,2013-10-31 23:52:00,
2013-10-31 18:07:00,64.8,41.0,29.77,WNW,302,0.0,0.0,42,0.00,,,0.01,weatherlink.com 1.10,2013-11-01 00:07:00,
2013-10-31 18:22:00,63.3,41.0,29.78,WNW,302,0.0,0.0,44,0.00,,,0.01,weatherlink.com 1.10,2013-11-01 00:22:00,
2013-10-31 18:37:00,62.7,41.0,29.78,WNW,302,0.0,0.0,45,0.00,,,0.01,weatherlink.com 1.10,2013-11-01 00:37:00,
2013-10-31 18:52:00,62.2,42.0,29.78,WNW,303,0.0,0.0,47,0.00,,,0.01,weatherlink.com 1.10,2013-11-01 00:52:00,
2013-10-31 19:07:00,61.4,42.0,29.78,WNW,303,0.0,0.0,49,0.00,,,0.01,weatherlink.com 1.10,2013-11-01 01:07:00,
2013-10-31 19:22:00,60.7,42.0,29.78,WNW,303,0.0,0.0,51,0.00,,,0.01,weatherlink.com 1.10,2013-11-01 01:22:00,
2013-10-31 19:37:00,59.9,42.0,29.79,WNW,302,0.0,0.0,51,0.00,,,0.01,weatherlink.com 1.10,2013-11-01 01:37:00,
2013-10-31 19:52:00,59.1,42.0,29.79,WNW,302,0.0,0.0,53,0.00,,,0.01,weatherlink.com 1.10,2013-11-01 01:52:00,
2013-10-31 20:07:00,58.1,42.0,29.79,WNW,300,0.0,0.0,56,0.00,,,0.01,weatherlink.com 1.10,2013-11-01 02:07:00,
2013-10-31 20:22:00,57.9,43.0,29.79,WSW,251,0.0,3.0,57,0.00,,,0.01,weatherlink.com 1.10,2013-11-01 02:22:00,
2013-10-31 20:37:00,57.3,42.0,29.79,SW,233,0.0,3.0,57,0.00,,,0.01,weatherlink.com 1.10,2013-11-01 02:37:00,
2013-10-31 20:52:00,57.1,43.0,29.80,SW,219,3.0,5.0,59,0.00,,,0.01,weatherlink.com 1.10,2013-11-01 02:52:00,
2013-10-31 21:07:00,56.4,42.0,29.80,SSW,209,0.0,4.0,59,0.00,,,0.01,weatherlink.com 1.10,2013-11-01 03:07:00,
2013-10-31 21:22:00,56.1,42.0,29.80,SSW,204,1.0,5.0,60,0.00,,,0.01,weatherlink.com 1.10,2013-11-01 03:22:00,
2013-10-31 21:37:00,56.2,42.0,29.80,SSW,197,0.0,4.0,60,0.00,,,0.01,weatherlink.com 1.10,2013-11-01 03:37:00,
2013-10-31 21:52:00,55.9,42.0,29.80,South,185,0.0,5.0,61,0.00,,,0.01,weatherlink.com 1.10,2013-11-01 03:52:00,
2013-10-31 22:07:00,55.7,43.0,29.80,South,181,1.0,6.0,62,0.00,,,0.01,weatherlink.com 1.10,2013-11-01 04:07:00,
2013-10-31 22:22:00,55.1,43.0,29.80,South,181,0.0,3.0,63,0.00,,,0.01,weatherlink.com 1.10,2013-11-01 04:22:00,
2013-10-31 22:37:00,54.3,43.0,29.80,South,181,1.0,3.0,65,0.00,,,0.01,weatherlink.com 1.10,2013-11-01 04:37:00,
2013-10-31 22:52:00,53.9,43.0,29.80,South,181,0.0,5.0,66,0.00,,,0.01,weatherlink.com 1.10,2013-11-01 04:52:00,
2013-10-31 23:07:00,53.6,42.0,29.80,South,181,4.0,4.0,66,0.00,,,0.01,weatherlink.com 1.10,2013-11-01 05:07:00,
2013-10-31 23:22:00,53.5,43.0,29.80,South,179,1.0,7.0,67,0.00,,,0.01,weatherlink.com 1.10,2013-11-01 05:22:00,
2013-10-31 23:37:00,53.5,42.0,29.79,South,176,3.0,5.0,66,0.00,,,0.01,weatherlink.com 1.10,2013-11-01 05:37:00,
2013-10-31 23:52:00,53.5,42.0,29.79,South,173,0.0,6.0,66,0.00,,,0.01,weatherlink.com 1.10,2013-11-01 05:52:00,